Regional Weather Roundup
Issued by NWS Upton, NY

Current Version | Previous Version | Text Only | Print | Product List | Glossary On
Versions: 1 2 3 4 5 6 7 8 9 10 11 12 13 14 15 16 17 18 19 20 21 22 23 24 25 26 27
000 ASUS41 KOKX 260009 RWROKX REGIONAL WEATHER ROUNDUP NATIONAL WEATHER SERVICE NEW YORK NY 800 PM EDT TUE JUL 25 2017 NOTE: "FAIR" INDICATES FEW OR NO CLOUDS BELOW 12,000 FEET WITH NO SIGNIFICANT WEATHER AND/OR OBSTRUCTIONS TO VISIBILITY. NYZ071-072-176-178-NJZ106-104-260100- NEW YORK CITY METRO AREA CITY SKY/WX TMP DP RH WIND PRES REMARKS Central Park CLOUDY 68 60 75 NE7 30.20R Bronx Bot Gard N/A 66 57 72 NE8 30.20R LaGuardia APRT CLOUDY 70 62 76 NE13 30.17R Kennedy INTL MOCLDY 69 60 73 NE13 30.17R Breezy Point N/A 68 N/A N/A NE5 N/A Newark/Liberty MOCLDY 71 60 68 NE7 30.16R Teterboro CLOUDY 69 60 73 NE7 30.16R $$ NYZ177-179-078>081-260100- LONG ISLAND NEW YORK CITY SKY/WX TMP DP RH WIND PRES REMARKS Jones Beach N/A 66 N/A N/A NE12 N/A Matinecock PT N/A 66 N/A N/A E8 N/A Farmingdale CLEAR 66 58 75 NE6 30.18R MacArthur/ISP CLOUDY 67 59 75 NE7 30.18R Shirley CLOUDY 67 61 81 N3 30.18R Mt Sinai Harb N/A N/A N/A N/A E3 N/A Westhampton CLOUDY 65 58 78 E3 30.19R East Hampton CLOUDY 63 57 82 NE5 30.18R Montauk N/A 65 58 78 NE7 30.20R $$ NYZ052-065-067-260100- HUDSON VALLEY CITY SKY/WX TMP DP RH WIND PRES REMARKS White Plains MOCLDY 65 59 81 E5 30.18R Larchmont Harb N/A 66 N/A N/A NE9 N/A Croton O-T Hud N/A 66 N/A N/A MISG N/A Newburgh CLOUDY 64 61 88 CALM 30.21R Montgomery CLOUDY 66 59 78 NE5 30.19R Poughkeepsie CLOUDY 66 58 75 CALM 30.18R Albany MOCLDY 65 57 75 N3 30.20R $$ NJZ001-105-106-008-010-013-015-019>022-104-260100- NEW JERSEY CITY SKY/WX TMP DP RH WIND PRES REMARKS Newark/Liberty MOCLDY 71 60 68 NE7 30.16R Teterboro CLOUDY 69 60 73 NE7 30.16R Caldwell CLOUDY 68 61 78 NE5 30.18R Somerville CLOUDY 69 66 90 CALM 30.16R Linden CLOUDY 69 61 74 CALM 30.17R Perth Amboy N/A 68 N/A N/A E8 N/A Sussex CLOUDY 65 64 97 NE3 30.18S Andover N/A 66 63 90 VRB5 30.18R Trenton CLOUDY 67 65 93 E6 30.16R Millville CLOUDY 71 68 90 E8 30.15R Atlantic City CLOUDY 70 65 84 E7 30.15R Wrightstown CLOUDY 67 65 93 E10 30.14R Toms River CLOUDY 69 63 81 E5 30.17R Belmar CLOUDY 67 61 81 E7 30.18R $$ PAZ047>061-062-071-260100- EASTERN PENNSYLVANIA CITY SKY/WX TMP DP RH WIND PRES REMARKS Philadelphia CLOUDY 76 62 62 N7 30.15R Allentown CLOUDY 71 62 73 E7 30.16R Scranton CLOUDY 68 60 75 N3 30.19R $$ CTZ002-004>006-009-010-012-RIZ004-006-007-MAZ004-011-015-260100- SOUTHERN NEW ENGLAND IN CT CITY SKY/WX TMP DP RH WIND PRES REMARKS Bradley INTL MOCLDY 65 58 78 CALM 30.19S Hartford CLOUDY 66 57 72 NE6 30.19R Danbury CLOUDY 65 57 75 NE6 30.20R Wtrbury/Oxford CLOUDY 63 54 72 NE3 30.20R Bridgeport CLOUDY 68 57 68 N9 30.18R Meriden CLOUDY 65 56 72 NE6 30.19R New Haven CLOUDY 67 57 70 NE8 30.18R Chester N/A 64 59 82 NE5 30.20R Groton CLOUDY 64 57 78 N7 30.18R Wilimantic CLOUDY 66 58 75 CALM 30.20R IN RI CITY SKY/WX TMP DP RH WIND PRES REMARKS Providence PTCLDY 63 57 81 N7 30.19R Block Island CLOUDY 63 57 81 N7 30.19R Westerly PTCLDY 63 58 83 CALM 30.19R IN MA CITY SKY/WX TMP DP RH WIND PRES REMARKS Boston PTCLDY 63 53 70 NE3 30.19R Worcester PTCLDY 59 55 87 CALM 30.20R Westfield CLOUDY 65 59 81 CALM 30.19R Provincetown CLEAR 60 56 86 N6 30.18R Nantucket PTCLDY 61 56 83 N15 30.15R $$ ANZ330-335-338-340-345-350-353-355-260100- COASTAL MARINE OBSERVATIONS STATION/POSITION TIME SKY/WX TEMP WIND PRES VSBY WAVE AIR SEA DIR/SP/G HT/PER (UTC) (F) (DEG/KT/KT) (MB) (MI) (FT/S) NY HARB ENTRANCE 2250 68 70 60/ 14/ 16 1020.2 3/ 8 20 S FIRE ISLAND 2350 67 73 60/ 10/ 12 1020.8 3/ 6 GREAT SOUTH BAY 2315 68 76 100/ 8/ 12 N/A 23 SSW MONTAUK P 2350 64 72 1021.9 3/ 8 15 E BARNEGAT LI 2330 70 N/A 3/ 4 HUDSON CANYON 2350 67 74 60/ 14/ 16 1020.2 3/ 6 KINGS POINT 2330 68 72 90/ 4/ 7 1021.5 EXECUTION ROCKS 2345 68 80/ 8/ 10 N/A CENTRAL LI SOUND NOT AVBL EASTERN LI SOUND NOT AVBL ROBBINS REEF 2330 60/ 9/ 11 1021.7 $$ >>>>>>>>>>>>>>>>>>>>>>>>>>>> KEY <<<<<<<<<<<<<<<<<<<<<<<<<<< > < > SKY/WX - Sky Condition/Present Weather < > TMP - Temperature in Fahrenheit < > DP - Dew Point in Fahrenheit < > RH - Relative Humidity in Percent < > WIND - Direction (from) and Speed in MPH < > PRES - Mean Sea Level Pressure (inches of Hg) < > WCI - Wind Chill Index < > VSB - VISIBILITY IN MILES < > HX - HEAT INDEX < > TC - TEMPERATURE IN CELSIUS < > VRB - VARIABLE WIND DIRECTION < > < >>>>>>>>>>>>>>>>>>>>>>>>>>>> KEY <<<<<<<<<<<<<<<<<<<<<<<<<<<

USA.gov is the U.S. government's official web portal to all federal, state and local government web resources and services.